Susqueda - Veïnat del Far (La Selva)





Hora UTC 21:50
Temperatura 20.3 ºC
Humitat 79.0 %
Pressió 1012.5 hPa
Pluja 0.0 mm
Velocitat vent 3.2 km/h
Direcció vent N

Dades diàries 2024-07-24



Hora UTC (hivern +1h; estiu +2h)
Temperatura (ºC) Humitat (%) Pressió (hPa) Velocitat vent (km/h) Precipitació (mm)
Hora UTC Aire Humitat Pressió Vel. Dir. Vel. Max Dir. Intent. màx 5 min.
00:05 22.4 61.0 1016.6 4.8 N 4.8 0.0
00:10 22.3 61.0 1016.4 6.4 N 8.0 0.0
00:15 22.2 61.0 1016.4 6.4 N 8.0 0.0
00:20 22.2 62.0 1016.1 8.0 N 9.7 0.0
00:25 22.2 62.0 1016.1 8.0 N 9.7 0.0
00:30 22.1 62.0 1016.1 6.4 N 9.7 0.0
00:35 22.0 63.0 1016.0 8.0 N 9.7 0.0
00:40 21.9 63.0 1015.8 6.4 N 9.7 0.0
00:45 21.8 63.0 1016.0 8.0 N 9.7 0.0
00:50 21.8 64.0 1016.0 8.0 N 8.0 0.0
00:55 21.8 64.0 1016.0 4.8 N 8.0 0.0
01:00 21.7 65.0 1016.0 4.8 N 6.4 0.0
01:05 21.6 65.0 1016.0 6.4 N 8.0 0.0
01:10 21.5 66.0 1015.9 4.8 N 8.0 0.0
01:15 21.4 66.0 1015.9 6.4 N 9.7 0.0
01:20 21.4 67.0 1015.9 4.8 N 9.7 0.0
01:25 21.4 67.0 1015.9 3.2 N 8.0 0.0
01:30 21.3 68.0 1015.8 3.2 N 6.4 0.0
01:35 21.3 68.0 1015.8 1.6 N 8.0 0.0
01:40 21.4 67.0 1015.7 6.4 N 8.0 0.0
01:45 21.5 67.0 1015.6 6.4 N 8.0 0.0
01:50 21.6 67.0 1015.7 4.8 N 9.7 0.0
01:55 21.6 67.0 1015.6 6.4 N 9.7 0.0
02:00 21.7 67.0 1015.6 8.0 N 11.3 0.0
02:05 21.6 67.0 1015.5 3.2 N 11.3 0.0
02:10 21.6 67.0 1015.5 4.8 N 8.0 0.0
02:15 21.5 67.0 1015.5 3.2 N 8.0 0.0
02:20 21.4 68.0 1015.4 4.8 N 6.4 0.0
02:25 21.4 68.0 1015.3 3.2 N 8.0 0.0
02:30 21.6 67.0 1015.4 8.0 N 8.0 0.0
02:35 21.6 67.0 1015.4 6.4 N 9.7 0.0
02:40 21.6 67.0 1015.3 4.8 N 9.7 0.0
02:45 21.5 67.0 1015.3 4.8 N 8.0 0.0
02:50 21.4 68.0 1015.2 6.4 N 8.0 0.0
02:55 21.3 68.0 1015.2 3.2 N 8.0 0.0
03:00 21.2 69.0 1015.2 4.8 N 8.0 0.0
03:05 21.2 69.0 1015.2 4.8 N 8.0 0.0
03:10 21.1 69.0 1015.3 6.4 N 9.7 0.0
03:15 21.1 70.0 1015.3 3.2 N 9.7 0.0
03:20 21.0 70.0 1015.1 3.2 N 8.0 0.0
03:25 20.9 70.0 1015.2 3.2 N 8.0 0.0
03:30 20.9 71.0 1015.2 6.4 N 8.0 0.0
03:35 20.9 71.0 1015.3 4.8 N 9.7 0.0
03:40 20.9 72.0 1015.3 4.8 N 9.7 0.0
03:45 20.9 72.0 1015.4 6.4 N 9.7 0.0
03:50 20.9 72.0 1015.4 4.8 N 9.7 0.0
03:55 20.9 72.0 1015.3 4.8 N 11.3 0.0
04:00 20.9 72.0 1015.3 6.4 N 11.3 0.0
04:05 20.8 72.0 1015.2 0.0 N 9.7 0.0
04:10 20.7 71.0 1015.1 1.6 N 9.7 0.0
04:15 20.7 71.0 1015.1 1.6 N 8.0 0.0
04:20 20.7 70.0 1015.1 1.6 N 8.0 0.0
04:25 20.7 70.0 1015.2 1.6 N 11.3 0.0
04:30 20.7 71.0 1015.3 0.0 N 6.4 0.0
04:35 20.7 71.0 1015.2 3.2 N 8.0 0.0
04:40 20.6 71.0 1015.1 1.6 N 8.0 0.0
04:45 20.5 71.0 1015.2 1.6 N 6.4 0.0
04:50 20.4 71.0 1015.1 1.6 N 6.4 0.0
04:55 20.4 70.0 1015.1 1.6 N 6.4 0.0
05:00 20.4 69.0 1015.1 3.2 N 6.4 0.0
05:05 20.5 68.0 1015.0 1.6 N 8.0 0.0
05:10 20.6 68.0 1015.0 3.2 N 6.4 0.0
05:15 20.6 68.0 1015.0 3.2 N 8.0 0.0
05:20 20.7 66.0 1014.9 4.8 N 8.0 0.0
05:25 20.7 65.0 1014.9 8.0 N 9.7 0.0
05:30 20.8 64.0 1015.1 3.2 N 9.7 0.0
05:35 20.8 63.0 1015.1 4.8 N 8.0 0.0
05:40 20.9 63.0 1015.2 1.6 N 6.4 0.0
05:45 20.9 63.0 1015.1 3.2 N 6.4 0.0
05:50 21.0 61.0 1015.1 1.6 N 8.0 0.0
05:55 21.1 61.0 1015.2 6.4 N 9.7 0.0
06:00 21.2 60.0 1015.1 3.2 N 9.7 0.0
06:05 21.2 59.0 1015.1 3.2 N 6.4 0.0
06:10 21.2 59.0 1015.1 3.2 N 8.0 0.0
06:15 21.2 59.0 1015.0 0.0 N 8.0 0.0
06:20 21.2 59.0 1015.1 3.2 N 6.4 0.0
06:25 21.2 59.0 1015.1 0.0 N 6.4 0.0
06:30 21.3 59.0 1015.1 6.4 N 6.4 0.0
06:35 21.3 60.0 1015.2 1.6 N 8.0 0.0
06:40 21.3 58.0 1015.2 1.6 N 6.4 0.0
06:45 21.4 59.0 1015.2 1.6 N 8.0 0.0
06:50 21.6 58.0 1015.1 1.6 N 6.4 0.0
06:55 21.6 58.0 1015.1 3.2 N 6.4 0.0
07:00 21.7 60.0 1015.1 6.4 N 6.4 0.0
07:05 21.7 58.0 1015.1 1.6 N 8.0 0.0
07:10 21.7 58.0 1015.2 1.6 N 8.0 0.0
07:15 21.8 58.0 1015.3 3.2 N 6.4 0.0
07:20 21.8 56.0 1015.2 4.8 N 8.0 0.0
07:25 21.9 57.0 1015.3 3.2 N 8.0 0.0
07:30 22.1 58.0 1015.3 6.4 N 8.0 0.0
07:35 22.3 57.0 1015.3 3.2 N 6.4 0.0
07:40 22.5 56.0 1015.3 3.2 N 6.4 0.0
07:45 22.7 55.0 1015.1 6.4 N 6.4 0.0
07:50 22.7 56.0 1015.2 3.2 N 9.7 0.0
07:55 22.8 55.0 1015.2 6.4 N 9.7 0.0
08:00 22.8 56.0 1015.1 1.6 N 8.0 0.0
08:05 23.0 56.0 1015.3 4.8 N 8.0 0.0
08:10 23.2 58.0 1015.1 1.6 N 4.8 0.0
08:15 23.6 58.0 1015.1 1.6 N 4.8 0.0
08:20 23.7 58.0 1014.9 1.6 N 4.8 0.0
08:25 24.0 59.0 1015.0 1.6 N 4.8 0.0
08:30 24.1 60.0 1014.9 1.6 N 4.8 0.0
08:35 24.0 59.0 1014.8 1.6 N 4.8 0.0
08:40 24.1 60.0 1014.9 0.0 N 3.2 0.0
08:45 24.3 60.0 1014.8 0.0 N 3.2 0.0
08:50 24.4 60.0 1014.9 0.0 N 3.2 0.0
08:55 24.7 59.0 1014.9 3.2 N 3.2 0.0
09:00 24.9 58.0 1015.0 1.6 N 4.8 0.0
09:05 25.2 57.0 1014.9 3.2 N 4.8 0.0
09:10 25.2 56.0 1014.9 1.6 N 6.4 0.0
09:15 25.2 56.0 1014.8 0.0 N 6.4 0.0
09:20 25.2 59.0 1014.8 0.0 N 8.0 0.0
09:25 25.4 58.0 1014.9 0.0 N 8.0 0.0
09:30 25.7 56.0 1014.9 0.0 N 8.0 0.0
09:35 25.9 54.0 1014.7 1.6 N 4.8 0.0
09:40 25.9 54.0 1014.6 1.6 N 4.8 0.0
09:45 26.1 56.0 1014.6 8.0 N 8.0 0.0
09:50 26.2 56.0 1014.8 1.6 N 9.7 0.0
09:55 26.2 57.0 1014.7 3.2 N 8.0 0.0
10:00 26.3 55.0 1014.7 1.6 N 6.4 0.0
10:05 26.4 56.0 1014.6 0.0 N 6.4 0.0
10:10 26.7 56.0 1014.6 3.2 N 9.7 0.0
10:15 27.1 56.0 1014.7 3.2 N 9.7 0.0
10:20 27.3 52.0 1014.5 1.6 N 8.0 0.0
10:25 27.3 53.0 1014.5 1.6 N 8.0 0.0
10:30 27.3 53.0 1014.4 3.2 N 6.4 0.0
10:35 27.2 54.0 1014.4 3.2 N 6.4 0.0
10:40 27.5 54.0 1014.4 4.8 N 6.4 0.0
10:45 27.7 55.0 1014.4 0.0 N 6.4 0.0
10:50 27.8 54.0 1014.2 4.8 N 6.4 0.0
10:55 27.4 56.0 1014.1 6.4 N 8.0 0.0
11:00 26.8 59.0 1014.2 4.8 N 9.7 0.0
11:05 26.3 61.0 1014.1 6.4 N 9.7 0.0
11:10 25.7 61.0 1014.2 9.7 N 16.1 0.0
11:15 25.2 64.0 1014.1 6.4 N 17.7 0.0
11:20 25.2 64.0 1014.2 4.8 N 14.5 0.0
11:25 25.3 63.0 1014.2 1.6 N 14.5 0.0
11:30 25.3 63.0 1014.1 6.4 N 16.1 0.0
11:35 25.1 64.0 1014.1 8.0 N 16.1 0.0
11:40 25.2 64.0 1013.9 3.2 N 14.5 0.0
11:45 25.5 65.0 1013.9 4.8 N 12.9 0.0
11:50 26.2 64.0 1013.9 17.7 N 16.1 0.0
11:55 26.1 62.0 1013.7 9.7 N 17.7 0.0
12:00 26.1 64.0 1013.7 1.6 N 11.3 0.0
12:05 26.5 63.0 1013.7 1.6 N 9.7 0.0
12:10 26.8 62.0 1013.6 1.6 N 14.5 0.0
12:15 27.1 60.0 1013.8 11.3 N 14.5 0.0
12:20 26.3 60.0 1013.5 1.6 N 14.5 0.0
12:25 26.2 62.0 1013.5 3.2 N 14.5 0.0
12:30 26.2 61.0 1013.6 1.6 N 14.5 0.0
12:35 26.3 63.0 1013.5 6.4 N 12.9 0.0
12:40 26.2 63.0 1013.6 6.4 N 12.9 0.0
12:45 26.3 63.0 1013.5 1.6 N 12.9 0.0
12:50 26.3 63.0 1013.3 4.8 N 16.1 0.0
12:55 26.4 63.0 1013.3 3.2 N 16.1 0.0
13:00 26.6 62.0 1013.3 3.2 N 11.3 0.0
13:05 26.5 63.0 1013.3 1.6 N 14.5 0.0
13:10 26.7 61.0 1013.2 3.2 N 11.3 0.0
13:15 26.8 61.0 1013.0 3.2 N 11.3 0.0
13:20 26.9 61.0 1013.0 6.4 N 11.3 0.0
13:25 26.8 61.0 1013.1 4.8 N 8.0 0.0
13:30 26.8 61.0 1012.9 6.4 N 8.0 0.0
13:35 26.9 63.0 1013.0 1.6 N 8.0 0.0
13:40 26.9 61.0 1012.9 3.2 N 14.5 0.0
13:45 26.8 61.0 1013.0 8.0 N 14.5 0.0
13:50 27.0 61.0 1012.8 4.8 N 11.3 0.0
13:55 27.2 62.0 1012.8 6.4 N 11.3 0.0
14:00 27.3 62.0 1012.9 12.9 N 12.9 0.0
14:05 27.1 61.0 1012.6 3.2 N 12.9 0.0
14:10 27.1 62.0 1012.9 6.4 N 14.5 0.0
14:15 26.8 61.0 1012.7 3.2 N 14.5 0.0
14:20 26.6 62.0 1012.8 1.6 N 12.9 0.0
14:25 26.4 63.0 1012.7 1.6 N 11.3 0.0
14:30 26.3 62.0 1012.7 8.0 N 11.3 0.0
14:35 25.9 62.0 1012.6 8.0 N 12.9 0.0
14:40 25.7 63.0 1012.6 8.0 N 12.9 0.0
14:45 25.8 62.0 1012.5 0.0 N 12.9 0.0
14:50 25.8 61.0 1012.6 3.2 N 14.5 0.0
14:55 25.8 61.0 1012.5 3.2 N 14.5 0.0
15:00 25.8 63.0 1012.6 1.6 N 8.0 0.0
15:05 25.9 62.0 1012.6 1.6 N 9.7 0.0
15:10 26.1 62.0 1012.6 0.0 N 6.4 0.0
15:15 26.2 62.0 1012.5 1.6 N 4.8 0.0
15:20 25.9 63.0 1012.6 1.6 N 6.4 0.0
15:25 25.4 63.0 1012.4 1.6 N 6.4 0.0
15:30 25.0 65.0 1012.4 3.2 N 6.4 0.0
15:35 24.8 66.0 1012.4 1.6 N 4.8 0.0
15:40 24.5 66.0 1012.4 1.6 N 4.8 0.0
15:45 24.3 67.0 1012.5 4.8 N 4.8 0.0
15:50 24.3 67.0 1012.4 1.6 N 4.8 0.0
15:55 24.2 67.0 1012.3 1.6 N 4.8 0.0
16:00 24.3 67.0 1012.3 1.6 N 4.8 0.0
16:05 24.2 67.0 1012.2 3.2 N 4.8 0.0
16:10 24.1 69.0 1012.2 4.8 N 4.8 0.0
16:15 23.9 69.0 1012.2 0.0 N 4.8 0.0
16:20 23.9 70.0 1012.2 1.6 N 4.8 0.0
16:25 23.9 70.0 1012.1 1.6 N 4.8 0.0
16:30 23.8 71.0 1012.1 3.2 N 6.4 0.0
16:35 23.7 72.0 1012.1 3.2 N 6.4 0.0
16:40 23.7 71.0 1012.0 3.2 N 4.8 0.0
16:45 23.7 68.0 1012.1 3.2 N 6.4 0.0
16:50 23.8 70.0 1012.0 0.0 N 6.4 0.0
16:55 24.1 69.0 1012.1 0.0 N 3.2 0.0
17:00 24.4 69.0 1011.9 1.6 N 3.2 0.0
17:05 24.6 68.0 1011.9 0.0 N 8.0 0.0
17:10 24.7 67.0 1011.9 1.6 N 8.0 0.0
17:15 24.7 66.0 1012.0 1.6 N 6.4 0.0
17:20 24.6 66.0 1011.9 0.0 N 9.7 0.0
17:25 24.6 66.0 1011.9 1.6 N 11.3 0.0
17:30 24.5 67.0 1011.8 3.2 N 11.3 0.0
17:35 24.4 67.0 1011.9 3.2 N 9.7 0.0
17:40 24.2 68.0 1012.0 1.6 N 6.4 0.0
17:45 24.0 69.0 1012.0 1.6 N 6.4 0.0
17:50 23.9 69.0 1012.1 0.0 N 8.0 0.0
17:55 23.7 69.0 1012.0 1.6 N 8.0 0.0
18:00 23.4 70.0 1011.9 0.0 N 6.4 0.0
18:05 23.2 70.0 1012.0 1.6 N 6.4 0.0
18:10 23.0 71.0 1012.1 1.6 N 6.4 0.0
18:15 22.9 71.0 1011.9 0.0 N 6.4 0.0
18:20 22.8 71.0 1012.0 3.2 N 3.2 0.0
18:25 22.7 71.0 1012.0 1.6 N 4.8 0.0
18:30 22.7 71.0 1012.0 0.0 N 4.8 0.0
18:35 22.6 71.0 1012.2 1.6 N 3.2 0.0
18:40 22.5 71.0 1012.2 0.0 N 3.2 0.0
18:45 22.4 71.0 1012.4 0.0 N 3.2 0.0
18:50 22.3 72.0 1012.3 0.0 N 4.8 0.0
18:55 22.2 72.0 1012.2 1.6 N 4.8 0.0
19:00 22.1 73.0 1012.1 3.2 N 4.8 0.0
19:05 22.0 73.0 1012.3 1.6 N 4.8 0.0
19:10 21.9 74.0 1012.2 1.6 N 3.2 0.0
19:15 21.8 74.0 1012.3 1.6 N 4.8 0.0
19:20 21.7 74.0 1012.3 1.6 N 4.8 0.0
19:25 21.6 75.0 1012.3 0.0 N 4.8 0.0
19:30 21.5 76.0 1012.4 0.0 N 4.8 0.0
19:35 21.3 76.0 1012.4 1.6 N 3.2 0.0
19:40 21.3 76.0 1012.4 0.0 N 4.8 0.0
19:45 21.2 77.0 1012.4 0.0 N 4.8 0.0
19:50 21.2 77.0 1012.4 0.0 N 3.2 0.0
19:55 21.2 77.0 1012.5 1.6 N 4.8 0.0
20:00 21.1 77.0 1012.5 0.0 N 4.8 0.0
20:05 21.1 78.0 1012.5 0.0 N 3.2 0.0
20:10 21.0 78.0 1012.4 0.0 N 3.2 0.0
20:15 20.9 78.0 1012.6 1.6 N 3.2 0.0
20:20 20.9 78.0 1012.7 3.2 N 3.2 0.0
20:25 20.9 79.0 1012.5 0.0 N 3.2 0.0
20:30 20.8 79.0 1012.5 3.2 N 4.8 0.0
20:35 20.8 79.0 1012.5 0.0 N 4.8 0.0
20:40 20.8 80.0 1012.5 0.0 N 4.8 0.0
20:45 20.7 80.0 1012.6 0.0 N 3.2 0.0
20:50 20.7 80.0 1012.6 0.0 N 1.6 0.0
20:55 20.5 81.0 1012.7 1.6 N 6.4 0.0
21:00 20.5 81.0 1012.7 3.2 N 6.4 0.0
21:05 20.5 81.0 1012.6 1.6 N 6.4 0.0
21:10 20.4 81.0 1012.6 1.6 N 6.4 0.0
21:15 20.4 81.0 1012.7 1.6 N 4.8 0.0
21:20 20.4 81.0 1012.6 0.0 N 1.6 0.0
21:25 20.4 81.0 1012.6 3.2 N 3.2 0.0
21:30 20.3 80.0 1012.6 0.0 N 3.2 0.0
21:35 20.2 80.0 1012.6 1.6 N 4.8 0.0
21:40 20.3 80.0 1012.6 3.2 N 4.8 0.0
21:45 20.3 79.0 1012.5 3.2 N 4.8 0.0
21:50 20.3 79.0 1012.5 3.2 N 4.8 0.0
Màxima 27.8 81.0 1016.6 17.7 N 17.7 0.0
Mínima 20 52.0 1011.8
Total 0.0